Vorticity
5 5 5 5 5 5 5 4 3 3 3 3 3 3 3 3 3 7 6 8 6 7 9 9 8 7 7 6 3 4 5 -1 -3 6 5 2 9 7 -0 -0 11 -1 17 8 -2
10 9 8 7 6 6 5 5 5 4 4 4 3 4 3 3 2 2 7 4 7 9 7 8 6 7 10 10 5 2 -1 6 -3 5 21 -7 1 -1 3 -2 -3 -8 12 15 8
7 6 7 9 9 8 8 6 5 5 5 5 5 4 4 4 4 4 7 4 5 5 8 8 8 7 9 4 7 11 0 3 4 -1 5 10 1 5 7 10 -6 -7 4 2 13
3 5 5 5 6 7 9 9 10 9 7 6 5 5 5 5 8 11 6 7 3 8 5 8 9 10 13 3 -2 -1 2 -3 4 6 4 4 7 6 1 9 -5 -14 4 -0 -0
1 1 3 3 2 5 7 6 6 7 9 9 9 7 7 7 6 2 -1 -6 -1 9 3 4 8 6 9 13 3 3 1 0 -2 -0 -0 -1 3 13 12 -1 24 23 16 -0 -1
1 2 -2 7 3 3 1 2 4 4 6 5 7 11 11 8 6 6 5 6 5 1 -3 1 3 5 5 8 9 9 2 2 4 3 4 8 13 13 18 26 11 10 15 13 5
8 6 -4 -2 2 -1 -0 5 2 1 3 4 3 2 5 12 9 8 8 3 7 5 5 7 3 5 5 5 22 15 16 15 19 11 21 12 15 12 6 10 4 3 -9 16 28
15 12 7 8 5 6 4 3 3 3 3 1 2 2 3 -1 2 4 6 12 12 9 7 4 4 5 6 2 3 3 3 9 0 -6 6 -2 31 2 4 13 8 3 -1 2 1
-2 12 6 4 11 11 6 11 10 10 7 12 9 6 13 14 19 11 18 17 11 13 13 9 7 5 6 6 7 7 -2 2 -1 4 13 7 11 11 -5 -2 1 -2 2 -1 4
3 -4 1 3 8 14 12 12 16 19 9 -2 11 20 29 31 19 31 16 12 7 3 6 13 14 6 5 2 -9 6 8 3 5 -0 -6 6 6 9 -4 4 16 5 3 10 2
7 -4 10 14 7 12 -3 -5 7 11 22 13 -11 6 18 18 15 6 3 9 11 13 3 10 7 -2 4 14 16 9 4 3 6 6 14 2 8 6 -0 -11 5 10 4 4 -1
3 14 14 10 11 16 16 12 12 0 6 15 9 10 10 12 8 8 14 11 10 7 10 9 3 4 12 11 13 8 4 4 8 12 8 -6 19 3 12 13 -5 3 8 2 -1
18 16 12 13 13 12 12 12 14 12 14 25 32 34 22 24 29 22 17 1 6 6 9 9 -5 -4 0 4 12 9 10 9 8 5 12 2 35 -2 6 8 22 3 10 4 4
11 10 10 10 11 10 11 13 13 13 22 19 4 -13 2 9 -3 19 46 39 8 -2 -2 5 22 12 8 6 3 8 14 12 15 17 9 11 -12 6 12 12 12 27 35 -2 9
10 10 9 10 9 11 9 10 10 9 3 24 5 8 16 2 9 -4 1 8 37 44 37 14 7 -0 0 -1 -7 9 -8 8 -1 3 16 10 33 35 -15 10 -1 -8 10 9 -6
10 10 10 10 10 8 9 9 6 17 7 11 6 6 7 13 7 5 1 1 10 5 3 5 12 4 10 16 9 7 12 10 17 13 43 4 2 9 4 3 15 24 15 12 2
10 9 8 8 7 8 8 7 9 6 11 11 12 3 5 14 8 12 16 13 9 20 16 8 2 8 0 7 17 29 22 35 37 39 -13 15 47 -7 11 -1 2 18 14 7 13
9 8 8 8 8 9 10 12 8 8 3 -3 1 -1 12 4 7 8 9 12 1 7 8 16 40 9 34 -1 -8 -2 8 -18 15 17 -2 18 17 7 11 11 -10 -11 10 8 10
8 9 8 8 9 10 13 11 11 10 11 4 10 20 13 5 3 12 19 2 9 11 12 16 19 17 11 -9 14 14 -1 25 30 8 23 4 -2 41 9 18 39 9 9 26 13
8 8 8 10 10 10 12 8 4 6 0 2 9 7 -0 1 14 8 12 5 3 -1 3 2 28 18 16 31 12 20 17 26 22 9 8 19 26 3 32 34 23 25 20 55 -1
8 10 10 8 8 8 5 5 8 1 0 7 1 -3 -2 7 -1 5 20 -4 -2 3 -6 -7 23 -16 -19 30 23 5 -20 6 11 -2 6 3 -1 -2 -0 -9 13 12 9 23 35
8 9 11 8 10 13 5 6 7 5 6 5 4 4 9 7 17 14 6 -5 -12 -12 -4 21 4 5 -5 19 35 59 43 40 4 5 9 6 9 -22 11 -8 -2 -2 5 7 46
8 9 6 8 7 9 5 9 11 8 8 12 3 4 -2 -2 16 13 2 -3 -4 21 10 -9 -0 25 23 28 33 -15 -31 -4 -12 10 12 11 1 -9 -53 -6 12 20 1 4 28
8 5 12 8 7 6 6 6 5 5 8 8 7 8 8 9 13 -6 -0 -6 5 3 -5 -4 7 5 -36 -51 -29 -4 -22 -10 19 10 -9 -14 6 -16 21 23 11 5 14 23 5
10 8 7 -2 27 15 18 5 18 18 12 10 10 11 9 11 9 13 7 -0 -6 -2 16 12 6 10 5 -4 1 4 10 6 7 4 -1 -12 -16 29 16 5 3 7 6 13 13
9 8 11 8 12 4 3 8 5 3 5 8 11 10 11 8 6 3 9 12 8 4 27 22 21 10 0 15 26 11 7 8 -0 -1 1 17 29 28 -26 8 19 0 19 4 10
9 11 12 10 10 8 7 6 5 7 19 16 13 10 9 7 5 2 2 4 -3 1 3 0 3 11 7 11 2 50 27 58 35 38 39 6 -5 -5 -3 -2 3 28 8 16 4
Height
3163 3165 3166 3167 3168 3168 3169 3169 3169 3170 3170 3171 3172 3172 3173 3172 3172 3172 3171 3171 3170 3170 3169 3169 3169 3169 3170 3170 3170 3170 3172 3170 3170 3170 3168 3167 3166 3166 3165 3164 3163 3163 3161 3162 3161
3161 3163 3164 3165 3166 3167 3168 3168 3168 3169 3169 3170 3171 3171 3172 3172 3172 3171 3172 3170 3170 3170 3169 3168 3168 3169 3170 3169 3170 3170 3169 3169 3169 3168 3166 3164 3164 3163 3164 3163 3162 3160 3159 3159 3159
3160 3161 3162 3163 3164 3165 3166 3166 3167 3167 3168 3168 3169 3170 3171 3171 3172 3170 3171 3171 3170 3169 3168 3168 3167 3168 3168 3168 3168 3167 3166 3167 3167 3165 3164 3162 3162 3160 3160 3160 3160 3159 3157 3157 3157
3156 3158 3159 3160 3162 3163 3163 3163 3164 3164 3165 3166 3167 3168 3168 3169 3172 3168 3169 3169 3169 3168 3168 3167 3166 3166 3166 3165 3164 3163 3164 3163 3162 3162 3160 3159 3159 3157 3156 3157 3157 3156 3153 3153 3153
3153 3155 3156 3157 3158 3160 3161 3161 3161 3161 3162 3163 3163 3164 3166 3167 3167 3167 3168 3168 3168 3168 3167 3166 3165 3164 3164 3164 3163 3161 3162 3160 3159 3158 3158 3157 3156 3154 3151 3154 3152 3150 3149 3148 3150
3149 3151 3153 3154 3155 3157 3158 3158 3159 3159 3159 3160 3160 3161 3162 3164 3162 3163 3164 3165 3166 3166 3165 3165 3164 3163 3162 3161 3162 3159 3157 3157 3157 3157 3156 3154 3151 3149 3148 3150 3148 3146 3145 3145 3144
3146 3148 3150 3151 3152 3153 3154 3155 3156 3156 3156 3157 3157 3158 3159 3161 3159 3160 3162 3162 3163 3162 3163 3163 3161 3162 3162 3159 3157 3156 3153 3152 3153 3154 3152 3149 3146 3146 3148 3146 3144 3144 3142 3141 3141
3143 3144 3146 3147 3148 3149 3150 3151 3151 3152 3152 3153 3153 3154 3154 3157 3157 3157 3157 3159 3159 3160 3160 3160 3158 3157 3157 3157 3154 3153 3151 3147 3149 3150 3149 3145 3141 3142 3142 3143 3143 3141 3140 3139 3138
3138 3140 3140 3142 3143 3144 3145 3146 3146 3146 3147 3147 3149 3149 3149 3152 3153 3152 3153 3154 3153 3154 3154 3155 3154 3154 3154 3153 3151 3148 3144 3144 3143 3144 3145 3142 3137 3137 3136 3135 3138 3138 3136 3135 3134
3133 3135 3136 3138 3139 3140 3141 3141 3141 3140 3142 3142 3142 3145 3146 3147 3145 3147 3147 3148 3150 3150 3150 3151 3149 3147 3149 3150 3143 3143 3141 3140 3138 3140 3139 3135 3130 3133 3132 3130 3130 3130 3131 3130 3129
3128 3129 3131 3133 3134 3136 3137 3137 3139 3138 3138 3139 3139 3138 3139 3140 3140 3142 3143 3144 3144 3144 3145 3146 3143 3142 3144 3143 3142 3141 3138 3135 3134 3137 3136 3128 3124 3126 3127 3126 3125 3125 3124 3124 3124
3125 3126 3127 3128 3129 3130 3131 3132 3132 3134 3134 3134 3133 3133 3134 3134 3134 3137 3137 3139 3138 3138 3139 3139 3133 3138 3138 3139 3138 3135 3134 3132 3126 3132 3135 3122 3112 3116 3119 3119 3120 3120 3119 3119 3118
3120 3121 3122 3124 3125 3126 3126 3128 3128 3128 3129 3130 3128 3128 3129 3128 3127 3130 3131 3132 3132 3134 3135 3132 3132 3134 3133 3133 3134 3130 3130 3129 3125 3127 3125 3121 3107 3105 3109 3111 3112 3112 3112 3113 3113
3117 3118 3119 3121 3123 3122 3123 3124 3124 3125 3125 3128 3125 3125 3126 3124 3125 3125 3124 3126 3126 3127 3130 3126 3127 3129 3129 3128 3131 3122 3129 3125 3122 3121 3116 3121 3106 3092 3101 3102 3105 3106 3106 3106 3106
3112 3114 3115 3117 3117 3119 3122 3121 3122 3124 3125 3127 3124 3124 3124 3125 3125 3123 3121 3122 3122 3123 3126 3118 3123 3124 3123 3123 3125 3117 3121 3120 3117 3115 3113 3102 3112 3084 3096 3094 3097 3101 3100 3099 3098
3109 3110 3112 3114 3115 3116 3118 3119 3121 3124 3119 3123 3123 3122 3123 3122 3122 3122 3121 3121 3121 3120 3118 3117 3120 3119 3117 3117 3118 3117 3112 3112 3111 3109 3106 3099 3103 3098 3084 3090 3092 3094 3095 3090 3085
3106 3107 3109 3111 3113 3114 3116 3118 3121 3120 3121 3120 3121 3120 3120 3121 3120 3120 3120 3120 3120 3118 3114 3113 3113 3114 3112 3110 3111 3112 3110 3105 3104 3101 3098 3098 3093 3085 3087 3091 3091 3089 3086 3083 3079
3103 3105 3105 3108 3110 3112 3114 3118 3118 3117 3116 3116 3120 3119 3118 3120 3119 3118 3118 3118 3118 3117 3114 3111 3106 3109 3109 3108 3107 3107 3109 3107 3100 3098 3093 3092 3084 3074 3082 3084 3084 3082 3079 3076 3071
3100 3102 3103 3105 3107 3109 3113 3114 3114 3114 3115 3116 3118 3116 3118 3119 3118 3118 3118 3118 3116 3114 3115 3111 3099 3103 3107 3105 3107 3104 3104 3103 3097 3095 3098 3088 3078 3070 3077 3081 3081 3073 3067 3067 3066
3097 3099 3101 3102 3104 3108 3110 3112 3111 3113 3113 3114 3114 3114 3117 3115 3116 3117 3117 3117 3114 3114 3114 3112 3098 3095 3098 3099 3104 3102 3101 3096 3097 3092 3087 3080 3076 3072 3073 3069 3063 3062 3058 3056 3058
3095 3096 3098 3100 3103 3106 3107 3110 3111 3110 3110 3112 3112 3112 3113 3114 3112 3113 3115 3114 3112 3113 3111 3108 3104 3093 3095 3096 3097 3097 3094 3094 3095 3091 3083 3079 3071 3073 3067 3064 3060 3060 3059 3054 3052
3091 3095 3096 3097 3103 3103 3105 3107 3108 3107 3107 3108 3109 3110 3111 3109 3110 3111 3111 3111 3109 3107 3107 3107 3102 3091 3090 3089 3089 3090 3089 3089 3089 3086 3082 3077 3067 3063 3064 3063 3059 3059 3053 3050 3049
3088 3092 3093 3095 3098 3100 3102 3104 3104 3105 3105 3106 3107 3106 3106 3107 3108 3105 3106 3107 3103 3103 3104 3104 3101 3093 3084 3087 3084 3086 3087 3088 3087 3085 3080 3080 3060 3058 3056 3058 3055 3054 3050 3049 3047
3086 3088 3090 3091 3095 3096 3099 3101 3100 3103 3102 3103 3104 3104 3103 3101 3102 3102 3100 3100 3098 3098 3100 3102 3096 3096 3089 3089 3088 3084 3081 3083 3083 3081 3075 3068 3058 3056 3057 3055 3050 3049 3048 3045 3044
3082 3085 3087 3088 3090 3093 3097 3098 3098 3098 3099 3101 3100 3097 3096 3097 3098 3098 3094 3091 3090 3093 3094 3095 3088 3088 3083 3083 3081 3077 3075 3074 3072 3070 3070 3059 3059 3057 3054 3049 3048 3047 3045 3043 3041
3079 3082 3084 3085 3087 3091 3093 3092 3091 3094 3096 3096 3094 3094 3094 3093 3092 3087 3086 3086 3084 3086 3086 3084 3080 3080 3070 3074 3073 3065 3064 3060 3059 3059 3058 3056 3047 3051 3047 3042 3043 3043 3041 3039 3037
3075 3077 3080 3082 3084 3087 3088 3088 3087 3090 3090 3089 3089 3088 3088 3088 3085 3082 3080 3079 3077 3076 3076 3077 3076 3076 3060 3069 3066 3053 3048 3046 3049 3048 3049 3046 3044 3043 3039 3037 3037 3036 3034 3032 3029